Zurück zum Katalog

STARLINK-11634

AktivKommunikationVLEO
NORAD 63673·PAYLOAD·🇺🇸 United States

Gestartet Apr 28, 2025 von Cape Canaveral Space Force Station

Loading…

Nächste Überflüge (nächste 24 Stunden)

TLE

AktuellSource: CelesTrak SupGP

Epoche: Sep 14, 2026, 22:37 UTC

1 63673C 25085K   26257.94284722  .00052558  00000+0  40813-3 0  2575
2 63673  43.0005 217.5989 0001524 254.9780 230.1106 15.70817729    18

Verfolge STARLINK-11634 in Echtzeit mit AllMySat

Download on the App Store